Time,TemperatureF,DewpointF,PressureIn,WindDirection,WindDirectionDegrees,WindSpeedMPH,WindSpeedGustMPH,Humidity,HourlyPrecipIn,Conditions,Clouds,dailyrainin,SoftwareType,DateUTC
2013-08-21 00:14:00,71.0,68.0,30.14,WNW,282,0.0,0.0,91,0.00,,,0.00,,2013-08-21 04:14:00,
2013-08-21 00:24:00,71.0,68.0,30.14,WNW,282,0.0,1.0,91,0.00,,,0.00,,2013-08-21 04:24:00,
2013-08-21 00:44:00,71.0,68.0,30.14,ESE,114,0.0,3.0,90,0.00,,,0.00,,2013-08-21 04:44:00,
2013-08-21 00:54:00,71.0,68.0,30.14,ESE,109,0.0,4.0,89,0.00,,,0.00,,2013-08-21 04:54:00,
2013-08-21 01:13:00,71.0,68.0,30.14,SE,130,0.0,3.0,89,0.00,,,0.00,,2013-08-21 05:13:00,
2013-08-21 01:23:00,71.0,68.0,30.14,ESE,119,0.0,1.0,89,0.00,,,0.00,,2013-08-21 05:23:00,
2013-08-21 01:52:00,70.0,67.0,30.14,SE,130,0.0,0.0,91,0.00,,,0.00,,2013-08-21 05:52:00,
2013-08-21 02:12:00,70.0,68.0,30.14,ESE,110,0.0,0.0,92,0.00,,,0.00,,2013-08-21 06:12:00,
2013-08-21 02:22:00,69.0,67.0,30.14,East,89,0.0,0.0,92,0.00,,,0.00,,2013-08-21 06:22:00,
2013-08-21 02:42:00,69.0,67.0,30.14,East,84,0.0,0.0,92,0.00,,,0.00,,2013-08-21 06:42:00,
2013-08-21 02:52:00,66.0,64.0,30.14,WNW,282,0.0,0.0,94,0.00,,,0.00,,2013-08-21 06:52:00,
2013-08-21 03:11:00,66.0,64.0,30.15,WNW,282,0.0,0.0,94,0.00,,,0.00,,2013-08-21 07:11:00,
2013-08-21 03:22:00,65.0,64.0,30.15,WNW,282,0.0,0.0,95,0.00,,,0.00,,2013-08-21 07:22:00,
2013-08-21 03:42:00,65.0,64.0,30.15,WNW,282,0.0,0.0,95,0.00,,,0.00,,2013-08-21 07:42:00,
2013-08-21 03:53:00,64.0,63.0,30.15,WNW,282,0.0,0.0,95,0.00,,,0.00,,2013-08-21 07:53:00,
2013-08-21 04:12:00,64.0,63.0,30.15,WNW,282,0.0,0.0,96,0.00,,,0.00,,2013-08-21 08:12:00,
2013-08-21 04:22:00,64.0,63.0,30.15,WNW,282,0.0,0.0,96,0.00,,,0.00,,2013-08-21 08:22:00,
2013-08-21 04:43:00,64.0,63.0,30.15,WNW,282,0.0,0.0,96,0.00,,,0.00,,2013-08-21 08:43:00,
2013-08-21 04:53:00,63.0,62.0,30.15,WNW,282,0.0,0.0,96,0.00,,,0.00,,2013-08-21 08:53:00,
2013-08-21 05:11:00,63.0,62.0,30.16,WNW,282,0.0,0.0,96,0.00,,,0.00,,2013-08-21 09:11:00,
2013-08-21 05:22:00,63.0,62.0,30.16,WNW,282,0.0,0.0,97,0.00,,,0.00,,2013-08-21 09:22:00,
2013-08-21 05:43:00,63.0,62.0,30.16,WNW,282,0.0,0.0,96,0.00,,,0.00,,2013-08-21 09:43:00,
2013-08-21 05:54:00,63.0,62.0,30.16,WNW,282,0.0,0.0,96,0.00,,,0.00,,2013-08-21 09:54:00,
2013-08-21 06:13:00,62.0,61.0,30.17,WNW,282,0.0,0.0,96,0.00,,,0.00,,2013-08-21 10:13:00,
2013-08-21 06:23:00,62.0,61.0,30.17,WNW,282,0.0,0.0,96,0.00,,,0.00,,2013-08-21 10:23:00,
2013-08-21 06:43:00,62.0,61.0,30.17,WNW,282,0.0,0.0,97,0.00,,,0.00,,2013-08-21 10:43:00,
2013-08-21 06:52:00,62.0,61.0,30.17,WNW,282,0.0,0.0,97,0.00,,,0.00,,2013-08-21 10:52:00,
2013-08-21 07:12:00,64.0,63.0,30.18,WNW,282,0.0,0.0,98,0.00,,,0.00,,2013-08-21 11:12:00,
2013-08-21 07:22:00,64.0,63.0,30.18,WNW,282,0.0,0.0,98,0.00,,,0.00,,2013-08-21 11:22:00,
2013-08-21 07:42:00,66.0,65.0,30.18,WNW,282,0.0,0.0,95,0.00,,,0.00,,2013-08-21 11:42:00,
2013-08-21 07:52:00,68.0,66.0,30.19,WNW,282,0.0,0.0,94,0.00,,,0.00,,2013-08-21 11:52:00,
2013-08-21 08:12:00,71.0,68.0,30.19,WNW,282,0.0,0.0,89,0.00,,,0.00,,2013-08-21 12:12:00,
2013-08-21 08:22:00,71.0,68.0,30.19,WNW,282,0.0,1.0,90,0.00,,,0.00,,2013-08-21 12:22:00,
2013-08-21 08:42:00,72.0,67.0,30.19,WNW,282,0.0,3.0,83,0.00,,,0.00,,2013-08-21 12:42:00,
2013-08-21 08:52:00,72.0,67.0,30.19,WNW,286,2.0,5.0,83,0.00,,,0.00,,2013-08-21 12:52:00,
2013-08-21 09:12:00,73.0,65.0,30.19,WNW,296,1.0,4.0,77,0.00,,,0.00,,2013-08-21 13:12:00,
2013-08-21 09:21:00,74.0,66.0,30.19,West,274,1.0,4.0,76,0.00,,,0.00,,2013-08-21 13:21:00,
2013-08-21 09:42:00,74.0,65.0,30.19,WNW,290,1.0,4.0,74,0.00,,,0.00,,2013-08-21 13:42:00,
2013-08-21 09:52:00,75.0,66.0,30.19,WNW,288,1.0,4.0,73,0.00,,,0.00,,2013-08-21 13:52:00,
2013-08-21 10:12:00,75.0,68.0,30.19,West,271,4.0,6.0,78,0.00,,,0.00,,2013-08-21 14:12:00,
2013-08-21 10:21:00,74.0,66.0,30.19,West,267,3.0,6.0,76,0.00,,,0.00,,2013-08-21 14:21:00,
2013-08-21 10:42:00,75.0,67.0,30.19,West,267,2.0,5.0,75,0.00,,,0.00,,2013-08-21 14:42:00,
2013-08-21 10:52:00,75.0,67.0,30.18,West,265,2.0,4.0,77,0.00,,,0.00,,2013-08-21 14:52:00,
2013-08-21 11:11:00,76.0,69.0,30.18,West,278,1.0,4.0,80,0.00,,,0.00,,2013-08-21 15:11:00,
2013-08-21 11:22:00,76.0,69.0,30.18,West,273,1.0,4.0,78,0.00,,,0.00,,2013-08-21 15:22:00,
2013-08-21 11:43:00,76.0,68.0,30.18,West,267,2.0,4.0,76,0.00,,,0.00,,2013-08-21 15:43:00,
2013-08-21 11:54:00,78.0,70.0,30.17,West,273,3.0,6.0,77,0.00,,,0.00,,2013-08-21 15:54:00,
2013-08-21 12:13:00,78.0,69.0,30.18,WNW,293,3.0,7.0,74,0.00,,,0.00,,2013-08-21 16:13:00,
2013-08-21 12:24:00,78.0,69.0,30.17,West,264,3.0,6.0,73,0.00,,,0.00,,2013-08-21 16:24:00,
2013-08-21 12:43:00,78.0,68.0,30.17,West,271,2.0,6.0,71,0.00,,,0.00,,2013-08-21 16:43:00,
2013-08-21 12:53:00,79.0,68.0,30.17,West,277,3.0,5.0,70,0.00,,,0.00,,2013-08-21 16:53:00,
2013-08-21 13:13:00,79.0,68.0,30.17,West,275,4.0,7.0,69,0.00,,,0.00,,2013-08-21 17:13:00,
2013-08-21 13:23:00,79.0,69.0,30.16,West,270,5.0,6.0,72,0.00,,,0.00,,2013-08-21 17:23:00,
2013-08-21 13:43:00,79.0,69.0,30.16,West,279,6.0,9.0,71,0.00,,,0.00,,2013-08-21 17:43:00,
2013-08-21 13:53:00,80.0,70.0,30.15,West,280,7.0,9.0,71,0.00,,,0.00,,2013-08-21 17:53:00,
2013-08-21 14:12:00,80.0,70.0,30.15,West,271,8.0,10.0,72,0.00,,,0.00,,2013-08-21 18:12:00,
2013-08-21 14:22:00,80.0,70.0,30.15,West,265,8.0,11.0,72,0.00,,,0.00,,2013-08-21 18:22:00,
2013-08-21 14:42:00,79.0,70.0,30.15,WSW,257,9.0,11.0,73,0.00,,,0.00,,2013-08-21 18:42:00,
2013-08-21 14:52:00,79.0,70.0,30.14,West,267,9.0,14.0,74,0.00,,,0.00,,2013-08-21 18:52:00,
2013-08-21 15:12:00,79.0,70.0,30.14,West,269,10.0,14.0,75,0.00,,,0.00,,2013-08-21 19:12:00,
2013-08-21 15:22:00,79.0,70.0,30.14,West,269,10.0,14.0,75,0.00,,,0.00,,2013-08-21 19:22:00,
2013-08-21 15:32:00,79.0,70.0,30.14,West,269,10.0,14.0,75,0.00,,,0.00,,2013-08-21 19:32:00,